1488474000.88,39424,10.0,72520.0,-9.79,-38.11,-37.93,0,*5A
1488474002.14,39425,9.94,72506.3,-9.79,-37.99,-37.81,0,*57
1488474003.4,39426,10.0,72488.5,-9.77,-37.99,-37.75,0,*51
1488474004.63,39427,10.0,72472.3,-9.79,-37.75,-37.51,0,*5A
1488474005.86,39428,9.94,72506.5,-9.79,-37.75,-37.39,0,*5B
1488474007.07,39429,10.0,72544.3,-9.79,-37.75,-37.57,0,*52
1488474008.33,39430,9.94,72534.8,-9.79,-37.81,-37.39,0,*59
1488474009.56,39431,9.94,72518.0,-9.79,-37.63,-37.15,0,*5A
1488474010.79,39432,9.94,72534.5,-9.79,-37.57,-36.79,0,*55
1488474012.02,39433,9.94,72512.3,-9.77,-37.33,-36.43,0,*51
1488474013.25,39434,9.94,72542.8,-9.79,-37.39,-36.31,0,*57
1488474014.51,39435,9.94,72542.0,-9.77,-37.51,-36.07,0,*53
1488474015.77,39436,10.0,72556.0,-9.77,-37.51,-36.07,0,*50
1488474017.0,39437,9.94,72560.3,-9.77,-37.33,-35.71,0,*57
1488474018.21,39438,9.94,72566.0,-9.75,-37.27,-35.47,0,*5A
1488474019.45,39439,9.94,72562.3,-9.77,-37.33,-35.29,0,*54
1488474020.71,39440,9.94,72568.3,-9.77,-37.33,-35.07,0,*56
1488474021.97,39441,9.94,72556.3,-9.77,-37.21,-34.71,0,*54
1488474023.22,39442,10.0,72568.8,-9.77,-37.03,-34.19,0,*59
1488474024.48,39443,9.94,72568.5,-9.77,-36.85,-33.61,0,*5F
1488474025.74,39444,9.94,72570.0,-9.77,-36.85,-33.09,0,*56
1488474026.96,39445,9.94,72564.8,-9.75,-36.73,-32.51,0,*50
1488474028.21,39446,10.0,72560.3,-9.75,-36.79,-31.95,0,*52
1488474029.48,39447,9.94,72552.3,-9.77,-36.79,-31.45,0,*5C
1488474030.76,39448,9.94,72542.8,-9.77,-36.61,-30.51,0,*5E
1488474032.05,39449,10.0,72568.3,-9.77,-36.49,-29.89,0,*58
1488474033.34,39450,9.94,72568.5,-9.77,-36.25,-28.91,0,*52
1488474034.58,39451,9.94,72554.3,-9.77,-35.89,-28.31,0,*5C
1488474035.86,39452,9.94,72564.3,-9.77,-35.35,-27.39,0,*5F
1488474037.11,39453,9.94,72556.0,-9.77,-34.89,-26.71,0,*55
1488474038.35,39454,9.94,72568.0,-9.79,-34.07,-26.17,0,*5A
1488474039.61,39455,10.0,72566.0,-9.77,-33.15,-25.55,0,*54
1488474040.87,39456,9.94,72566.3,-9.77,-32.19,-25.19,0,*52
1488474042.16,39457,10.0,72574.3,-9.77,-31.11,-24.87,0,*5E
1488474043.39,39458,9.94,72574.5,-9.77,-30.27,-24.97,0,*54
1488474044.63,39459,9.94,72576.0,-9.77,-29.61,-25.35,0,*56
1488474045.89,39460,10.0,72574.5,-9.77,-29.07,-25.81,0,*53
1488474047.13,39461,9.94,72576.5,-9.77,-28.69,-26.39,0,*5B
1488474048.39,39462,9.94,72582.8,-9.77,-28.31,-26.81,0,*56
1488474049.68,39463,10.0,72592.3,-9.77,-28.21,-27.39,0,*54
1488474050.97,39464,10.0,72594.0,-9.77,-28.21,-28.05,0,*53
1488474052.2,39465,9.94,72594.8,-9.77,-28.31,-28.37,0,*52
1488474053.46,39466,9.94,72592.0,-9.77,-28.37,-29.01,0,*53
1488474054.75,39467,10.0,72594.5,-9.77,-28.59,-29.35,0,*5D
1488474055.99,39468,9.94,72592.3,-9.75,-28.53,-29.51,0,*58
1488474057.22,39469,9.94,72596.8,-9.75,-28.53,-30.01,0,*54
1488474058.51,39470,9.94,72602.3,-9.77,-28.59,-30.39,0,*5F
1488474059.76,39471,9.94,72598.8,-9.77,-28.53,-30.67,0,*5F
1488474061.02,39472,9.94,72600.5,-9.77,-28.59,-31.01,0,*57
1488474062.28,39473,9.94,72598.5,-9.77,-28.59,-31.33,0,*57
1488474063.54,39474,9.94,72592.0,-9.77,-28.69,-31.51,0,*57
1488474064.8,39475,9.94,72598.8,-9.77,-28.69,-31.91,0,*5A
1488474066.01,39476,9.94,72594.0,-9.79,-28.85,-32.23,0,*5F
1488474067.25,39477,9.94,72596.5,-9.77,-29.07,-32.51,0,*5E
1488474068.52,39478,9.94,72596.8,-9.77,-29.35,-32.91,0,*5C
1488474069.75,39479,9.94,72594.5,-9.77,-29.79,-33.15,0,*58
1488474070.96,39480,9.94,72588.0,-9.79,-29.95,-33.15,0,*52
1488474072.22,39481,9.94,72592.0,-9.77,-30.27,-33.31,0,*5A
1488474073.48,39482,9.94,72588.8,-9.79,-30.61,-33.27,0,*52
1488474074.77,39483,9.94,72572.3,-9.77,-30.77,-33.27,0,*5A
1488474076.05,39484,9.94,72572.0,-9.77,-30.95,-33.09,0,*5D
1488474077.32,39485,10.0,72572.3,-9.77,-30.95,-32.91,0,*5C
1488474078.57,39486,9.94,72568.8,-9.77,-31.01,-32.97,0,*55
1488474079.8,39487,9.94,72574.3,-9.79,-31.11,-32.91,0,*5D
1488474081.06,39488,9.94,72574.0,-9.79,-30.95,-32.97,0,*59
1488474082.32,39489,9.94,72576.0,-9.77,-30.83,-32.97,0,*51
1488474083.55,39490,9.94,72582.5,-9.79,-30.67,-33.09,0,*5B
1488474084.84,39491,9.94,72580.5,-9.77,-30.77,-33.43,0,*5B
1488474086.07,39492,9.94,72594.3,-9.79,-30.95,-33.67,0,*5C
1488474087.27,39493,9.94,72588.3,-9.79,-31.01,-33.83,0,*5B
1488474088.53,39494,9.94,72584.5,-9.77,-31.11,-34.07,0,*58
1488474089.75,39495,9.94,72586.0,-9.79,-31.29,-34.19,0,*53
1488474091.0,39496,9.94,72588.5,-9.79,-31.51,-34.19,0,*5F
1488474092.25,39497,9.94,72584.8,-9.79,-31.73,-33.89,0,*50
1488474093.54,39498,9.94,72588.5,-9.77,-31.91,-33.89,0,*5D
1488474094.8,39499,9.94,72586.5,-9.79,-32.07,-33.77,0,*5F
1488474096.08,39500,9.94,72588.0,-9.77,-32.19,-33.49,0,*52
1488474097.3,39501,9.94,72588.0,-9.79,-32.35,-33.31,0,*5C
1488474098.54,39502,9.94,72594.0,-9.79,-32.51,-33.09,0,*56
1488474099.77,39503,9.94,72598.3,-9.79,-32.57,-32.75,0,*5B
1488474101.03,39504,9.94,72598.3,-9.77,-32.75,-32.57,0,*52
1488474102.23,39505,9.94,72594.0,-9.79,-32.91,-32.57,0,*57
1488474103.45,39506,9.94,72604.8,-9.79,-32.97,-32.23,0,*51
1488474104.71,39507,9.94,72604.0,-9.79,-33.27,-32.19,0,*53
1488474105.99,39508,9.94,72612.0,-9.77,-33.61,-31.73,0,*5F
1488474107.25,39509,9.94,72606.0,-9.77,-33.67,-31.61,0,*5B
1488474108.48,39510,10.0,72618.3,-9.79,-33.77,-31.01,0,*5A
1488474109.75,39511,9.94,72614.3,-9.77,-33.83,-30.77,0,*5E
1488474110.99,39512,9.94,72612.3,-9.79,-34.01,-30.45,0,*5F
1488474112.22,39513,9.94,72616.8,-9.79,-34.01,-29.95,0,*5B
1488474113.45,39514,9.94,72610.8,-9.79,-33.89,-29.61,0,*50
1488474114.65,39515,9.94,72618.8,-9.79,-33.83,-29.45,0,*5D
1488474115.85,39516,9.94,72622.0,-9.79,-33.67,-29.23,0,*54
1488474117.08,39517,9.94,72624.3,-9.79,-33.49,-29.23,0,*59
1488474118.31,39518,9.94,72626.0,-9.79,-33.31,-29.23,0,*59
1488474119.56,39519,9.94,72632.3,-9.79,-33.31,-29.35,0,*5F
1488474120.77,39520,9.94,72628.8,-9.79,-33.15,-29.57,0,*57
1488474121.99,39521,9.94,72624.8,-9.79,-32.91,-29.73,0,*5D
1488474123.25,39522,9.94,72630.8,-9.79,-32.79,-29.89,0,*5D
1488474124.45,39523,9.94,72632.3,-9.79,-32.91,-30.23,0,*52
1488474125.69,39524,9.94,72636.3,-9.79,-32.75,-30.27,0,*5B
1488474126.91,39525,9.94,72648.0,-9.81,-32.97,-30.45,0,*55
1488474128.15,39526,9.94,72642.5,-9.81,-32.85,-30.67,0,*55
1488474129.38,39527,9.94,72640.3,-9.81,-33.15,-30.89,0,*5C
1488474130.62,39528,9.94,72638.0,-9.81,-33.15,-30.89,0,*53
1488474131.82,39529,9.94,72628.5,-9.81,-33.21,-31.01,0,*54
1488474133.05,39530,9.94,72618.0,-9.81,-33.31,-31.05,0,*59
1488474134.29,39531,9.94,72630.0,-9.81,-33.37,-31.23,0,*5A
1488474135.52,39532,9.94,72628.5,-9.81,-33.37,-31.23,0,*59
1488474136.72,39533,9.94,72626.3,-9.81,-33.55,-31.33,0,*5D
1488474137.98,39534,9.94,72606.3,-9.79,-33.49,-31.11,0,*50
1488474139.19,39535,9.94,72578.5,-9.81,-33.67,-31.17,0,*5C
1488474140.43,39536,9.94,72602.0,-9.81,-33.73,-31.05,0,*59
1488474141.64,39537,9.94,72602.5,-9.81,-33.55,-30.83,0,*53
1488474142.85,39538,9.94,72594.3,-9.81,-33.37,-30.67,0,*52
1488474144.11,39539,9.94,72590.5,-9.81,-33.49,-30.55,0,*5B
1488474145.34,39540,9.94,72584.5,-9.81,-33.37,-30.51,0,*58
1488474146.6,39541,9.94,72586.8,-9.83,-33.37,-30.17,0,*59
1488474147.83,39542,9.94,72584.0,-9.81,-33.21,-30.01,0,*58
1488474149.08,39543,9.94,72584.3,-9.83,-33.03,-30.01,0,*5B
1488474150.32,39544,9.94,72586.0,-9.81,-32.79,-29.83,0,*50
1488474151.57,39545,9.94,72582.5,-9.83,-32.75,-29.79,0,*5A
1488474152.77,39546,9.94,72568.8,-9.81,-32.57,-29.79,0,*5B
1488474153.97,39547,9.94,72558.3,-9.81,-32.23,-29.67,0,*56
1488474155.17,39548,9.94,72550.0,-9.81,-32.23,-29.61,0,*5F
1488474156.39,39549,9.94,72546.3,-9.83,-32.13,-29.61,0,*5F
1488474157.65,39550,9.94,72556.3,-9.81,-32.07,-29.51,0,*53
1488474158.9,39551,9.94,72582.3,-9.81,-31.95,-29.29,0,*55
1488474160.14,39552,9.94,72588.3,-9.83,-31.79,-29.13,0,*5F
1488474161.37,39553,9.94,72586.0,-9.81,-31.79,-28.91,0,*57
1488474162.63,39554,9.94,72588.0,-9.81,-31.73,-28.63,0,*57
1488474163.86,39555,9.94,72586.0,-9.81,-31.57,-28.37,0,*51
1488474165.12,39556,9.94,72592.5,-9.81,-31.51,-28.21,0,*53
1488474166.35,39557,9.94,72588.5,-9.81,-31.23,-27.89,0,*5A
1488474167.62,39558,9.94,72590.0,-9.83,-30.89,-27.45,0,*56
1488474168.85,39559,9.94,72590.3,-9.83,-30.67,-27.29,0,*5D
1488474170.06,39560,9.94,72588.3,-9.81,-30.27,-27.07,0,*5D
1488474171.32,39561,9.94,72588.8,-9.83,-29.95,-26.77,0,*59
1488474172.54,39562,9.94,72580.8,-9.81,-29.61,-26.55,0,*53
1488474173.8,39563,9.94,72582.5,-9.83,-29.13,-26.39,0,*5F
1488474175.06,39564,9.94,72574.3,-9.81,-28.79,-26.17,0,*5B
1488474176.29,39565,9.94,72582.5,-9.79,-28.37,-26.17,0,*57
1488474177.52,39566,9.94,72586.8,-9.81,-28.05,-26.07,0,*53
1488474178.72,39567,9.94,72586.3,-9.81,-27.71,-25.87,0,*55
1488474179.93,39568,9.94,72580.0,-9.81,-27.55,-25.87,0,*5C
1488474181.21,39569,9.94,72586.0,-9.83,-27.39,-25.71,0,*5C
1488474182.45,39570,9.94,72586.0,-9.81,-27.29,-25.71,0,*57
1488474183.68,39571,9.94,72588.0,-9.81,-27.23,-25.61,0,*5D
1488474184.92,39572,9.94,72590.5,-9.81,-27.29,-25.55,0,*53
1488474186.14,39573,9.94,72588.8,-9.79,-27.19,-25.35,0,*50
1488474187.35,39574,9.94,72594.0,-9.79,-27.13,-25.19,0,*53
1488474188.58,39575,9.94,72592.8,-9.81,-27.07,-25.03,0,*5B
1488474189.8,39576,9.94,72596.8,-9.81,-26.87,-24.87,0,*5C
1488474191.06,39577,9.94,72596.8,-9.81,-26.71,-24.71,0,*5D
1488474192.26,39578,9.94,72590.8,-9.79,-26.39,-24.57,0,*5D
1488474193.49,39579,9.94,72590.5,-9.81,-26.13,-24.57,0,*53
1488474194.69,39580,9.94,72582.0,-9.81,-25.91,-24.61,0,*59
1488474195.91,39581,9.94,72578.3,-9.81,-25.61,-24.87,0,*5F
1488474197.17,39582,9.94,72576.0,-9.81,-25.55,-25.29,0,*5E
1488474198.39,39583,9.94,72574.0,-9.79,-25.39,-25.49,0,*54
1488474199.61,39584,9.94,72556.5,-9.79,-25.35,-25.97,0,*5C
1488474200.85,39585,9.94,72550.8,-9.79,-25.49,-26.33,0,*5B
1488474202.08,39586,9.94,72536.0,-9.79,-25.65,-26.71,0,*50
1488474203.29,39587,9.94,72520.5,-9.79,-26.03,-27.03,0,*56
1488474204.52,39588,9.94,72510.8,-9.79,-26.23,-27.23,0,*59
1488474205.75,39589,9.94,72516.0,-9.79,-26.65,-27.23,0,*5A
1488474206.98,39590,9.94,72520.3,-9.79,-26.87,-27.23,0,*5E
1488474208.21,39591,9.94,72540.3,-9.79,-27.03,-27.35,0,*55
1488474209.47,39592,9.94,72546.5,-9.81,-27.45,-27.39,0,*5F
1488474210.73,39593,9.94,72556.0,-9.81,-27.61,-27.39,0,*58
1488474211.98,39594,9.94,72566.0,-9.83,-27.77,-27.39,0,*5A
1488474213.21,39595,9.94,72566.8,-9.81,-27.89,-27.39,0,*58
1488474214.43,39596,9.94,72568.8,-9.81,-27.89,-27.39,0,*5B
1488474215.66,39597,9.94,72572.8,-9.81,-27.89,-27.39,0,*5A
1488474216.88,39598,9.94,72576.5,-9.81,-27.89,-27.45,0,*5E
1488474218.11,39599,9.94,72580.0,-9.81,-27.71,-27.61,0,*5E
1488474219.37,39600,9.94,72588.8,-9.81,-27.45,-27.61,0,*5A
1488474220.58,39601,9.94,72590.8,-9.81,-27.29,-27.77,0,*56
1488474221.82,39602,9.94,72596.5,-9.81,-27.19,-28.05,0,*5C
1488474223.09,39603,9.94,72592.5,-9.83,-27.19,-28.43,0,*5D
1488474224.33,39604,9.94,72598.8,-9.79,-27.19,-28.75,0,*5A
1488474225.56,39605,9.94,72606.3,-9.79,-27.35,-29.45,0,*57
1488474226.79,39606,9.94,72608.8,-9.79,-27.55,-29.89,0,*52
1488474228.02,39607,9.94,72610.3,-9.79,-27.83,-30.45,0,*50
1488474229.28,39608,9.94,72606.5,-9.79,-28.05,-30.95,0,*53
1488474230.54,39609,9.94,72606.3,-9.81,-28.21,-31.23,0,*5F
1488474231.82,39610,9.94,72604.3,-9.83,-28.43,-31.51,0,*54
1488474233.04,39611,9.94,72606.3,-9.81,-28.79,-31.67,0,*5B
1488474234.25,39612,9.94,72608.5,-9.81,-29.07,-31.79,0,*5F
1488474235.45,39613,9.94,72610.5,-9.81,-29.23,-31.79,0,*58
1488474236.74,39614,9.94,72610.3,-9.83,-29.51,-31.91,0,*5E
1488474237.94,39615,9.94,72608.3,-9.81,-29.67,-31.79,0,*5E
1488474239.14,39616,9.94,72610.8,-9.81,-29.79,-31.79,0,*52
1488474240.39,39617,9.94,72612.3,-9.83,-30.01,-31.79,0,*56
1488474241.64,39618,9.94,72610.3,-9.83,-30.01,-31.79,0,*59
1488474242.87,39619,9.94,72604.8,-9.83,-30.27,-31.79,0,*5C
1488474244.11,39620,9.94,72592.0,-9.83,-30.33,-31.91,0,*55
1488474245.36,39621,9.94,72592.8,-9.83,-30.45,-31.91,0,*55
1488474246.6,39622,9.94,72594.8,-9.83,-30.51,-31.67,0,*5A
1488474247.83,39623,9.94,72590.5,-9.83,-30.67,-31.67,0,*5E
1488474249.08,39624,9.94,72592.0,-9.81,-30.73,-31.51,0,*5B
1488474250.31,39625,9.94,72588.3,-9.83,-30.83,-31.33,0,*53
1488474251.57,39626,9.94,72596.0,-9.83,-30.89,-31.17,0,*5C
1488474252.79,39627,9.94,72592.3,-9.83,-31.17,-31.01,0,*5C
1488474254.02,39628,9.94,72598.8,-9.83,-31.33,-31.01,0,*55
1488474255.28,39629,9.94,72602.3,-9.81,-31.51,-30.89,0,*53
1488474256.54,39630,9.94,72602.0,-9.83,-31.73,-30.83,0,*53
1488474257.79,39631,9.94,72602.3,-9.83,-31.79,-30.55,0,*53
1488474259.04,39632,9.94,72604.3,-9.83,-32.13,-30.55,0,*5F
1488474260.29,39633,9.94,72606.8,-9.83,-32.13,-30.51,0,*5A
1488474261.56,39634,9.94,72608.0,-9.83,-32.29,-30.55,0,*50
1488474262.84,39635,9.94,72610.8,-9.83,-32.45,-30.55,0,*5B
1488474264.09,39636,9.94,72612.3,-9.83,-32.57,-30.55,0,*5B
1488474265.36,39637,9.94,72614.8,-9.83,-32.63,-30.55,0,*5D
1488474266.64,39638,9.94,72614.3,-9.83,-32.63,-30.55,0,*52
1488474267.89,39639,9.94,72616.5,-9.83,-32.57,-30.55,0,*54
1488474269.17,39640,9.94,72614.3,-9.83,-32.45,-30.51,0,*5D
1488474270.42,39641,9.94,72616.0,-9.83,-32.39,-30.55,0,*53
1488474271.69,39642,10.0,72616.3,-9.83,-32.29,-30.55,0,*51
1488474272.92,39643,9.94,72608.0,-9.83,-32.23,-30.67,0,*5B
1488474274.17,39644,9.94,72604.8,-9.83,-32.29,-30.83,0,*5C
1488474275.42,39645,9.94,72604.0,-9.85,-32.29,-30.95,0,*5C
1488474276.65,39646,9.94,72606.5,-9.85,-32.29,-31.05,0,*57
1488474277.89,39647,9.94,72604.5,-9.85,-32.51,-31.23,0,*5D
1488474279.15,39648,9.94,72604.8,-9.85,-32.79,-31.11,0,*59
1488474280.38,39649,9.94,72604.5,-9.85,-32.85,-31.05,0,*5E
1488474281.64,39650,9.94,72602.3,-9.87,-33.03,-30.73,0,*5B
1488474282.87,39651,9.94,72598.0,-9.85,-33.21,-30.39,0,*56
1488474284.13,39652,9.94,72596.8,-9.87,-33.21,-30.05,0,*58
1488474285.4,39653,9.94,72592.0,-9.87,-33.27,-29.73,0,*56
1488474286.67,39654,9.94,72588.3,-9.87,-33.27,-29.13,0,*57
1488474287.93,39655,9.94,72584.8,-9.87,-33.27,-28.53,0,*53
1488474289.16,39656,9.94,72594.0,-9.87,-33.03,-27.93,0,*55
1488474290.44,39657,9.94,72592.8,-9.87,-32.85,-27.35,0,*57
1488474291.69,39658,9.94,72592.5,-9.87,-32.63,-26.65,0,*54
1488474292.95,39659,9.94,72594.3,-9.87,-32.19,-26.23,0,*5A
1488474294.2,39660,9.94,72592.0,-9.87,-31.79,-25.45,0,*56
1488474295.45,39661,9.94,72590.8,-9.87,-31.29,-24.67,0,*53
1488474296.72,39662,9.94,72590.0,-9.87,-30.89,-24.11,0,*5A
1488474297.95,39663,9.94,72588.5,-9.87,-30.23,-23.39,0,*56
1488474299.18,39664,9.94,72590.8,-9.85,-29.57,-22.73,0,*57
1488474300.44,39665,9.94,72594.5,-9.87,-29.01,-22.03,0,*50
1488474301.67,39666,9.94,72590.8,-9.87,-28.15,-21.47,0,*54
1488474302.93,39667,9.94,72592.3,-9.87,-27.67,-20.99,0,*5D
1488474304.22,39668,9.94,72588.5,-9.87,-26.97,-20.53,0,*5A
1488474305.48,39669,9.94,72590.5,-9.87,-26.13,-20.25,0,*56
1488474306.71,39670,9.94,72594.5,-9.87,-25.61,-19.99,0,*55
1488474307.96,39671,9.94,72594.8,-9.87,-24.97,-19.85,0,*51
1488474309.22,39672,9.94,72594.8,-9.87,-24.21,-19.75,0,*50
1488474310.47,39673,9.94,72596.0,-9.87,-23.49,-19.71,0,*5C
1488474311.73,39674,9.94,72594.3,-9.87,-23.19,-19.75,0,*5A
1488474312.98,39675,9.94,72602.5,-9.87,-22.73,-19.91,0,*5C
1488474314.21,39676,9.94,72602.3,-9.87,-22.27,-20.05,0,*59
1488474315.44,39677,9.94,72604.3,-9.85,-22.07,-20.19,0,*55
1488474316.65,39678,9.94,72604.3,-9.85,-21.93,-20.25,0,*5B
1488474317.94,39679,9.94,72604.8,-9.87,-21.87,-20.49,0,*57
1488474319.18,39680,9.94,72600.3,-9.85,-21.77,-20.83,0,*5A
1488474320.46,39681,9.94,72592.3,-9.87,-21.57,-20.99,0,*50
1488474321.69,39682,9.94,72596.0,-9.87,-21.47,-21.43,0,*54
1488474322.91,39683,9.94,72606.3,-9.85,-21.43,-21.57,0,*56
1488474324.14,39684,9.94,72608.0,-9.85,-21.33,-22.03,0,*54
1488474325.39,39685,9.94,72596.0,-9.83,-21.27,-22.37,0,*51
1488474326.67,39686,9.94,72598.8,-9.83,-21.27,-22.77,0,*56
1488474327.93,39687,9.94,72602.5,-9.85,-21.33,-23.33,0,*55
1488474329.13,39688,9.94,72602.8,-9.85,-21.47,-23.79,0,*57
1488474330.34,39689,9.94,72606.8,-9.85,-21.77,-24.35,0,*5A
1488474331.54,39690,9.94,72596.5,-9.85,-22.27,-24.97,0,*5C
1488474332.83,39691,9.94,72598.8,-9.83,-22.77,-25.71,0,*57
1488474334.06,39692,9.94,72596.8,-9.83,-23.43,-26.07,0,*50
1488474335.29,39693,9.94,72592.8,-9.83,-24.05,-26.45,0,*52
1488474336.52,39694,9.94,72596.3,-9.83,-24.61,-26.87,0,*59
1488474337.77,39695,9.94,72594.0,-9.83,-25.39,-26.93,0,*51
1488474339.02,39696,9.94,72592.5,-9.83,-26.17,-27.03,0,*55
1488474340.3,39697,9.94,72602.0,-9.83,-26.71,-26.77,0,*56
1488474341.54,39698,9.94,72594.8,-9.83,-27.19,-26.45,0,*57
1488474342.79,39699,9.94,72594.8,-9.83,-27.77,-26.17,0,*59
1488474344.08,39700,9.94,72592.0,-9.83,-28.21,-25.71,0,*57
1488474345.31,39701,9.94,72592.3,-9.81,-28.59,-25.39,0,*57
1488474346.57,39702,9.94,72598.5,-9.83,-28.97,-24.71,0,*59
1488474347.84,39703,9.94,72598.3,-9.83,-29.13,-24.15,0,*57
1488474349.06,39704,9.94,72600.8,-9.83,-29.23,-23.59,0,*5C
1488474350.3,39705,9.94,72600.3,-9.83,-29.45,-23.09,0,*58
1488474351.59,39706,9.94,72600.8,-9.83,-29.39,-22.47,0,*5B
1488474352.87,39707,9.94,72602.3,-9.83,-29.39,-21.97,0,*54
1488474354.15,39708,9.94,72600.3,-9.83,-29.13,-21.27,0,*58
1488474355.4,39709,9.94,72596.0,-9.83,-29.13,-20.63,0,*58
1488474356.66,39710,9.94,72596.3,-9.83,-28.79,-19.99,0,*52
1488474357.93,39711,9.94,72596.8,-9.83,-28.47,-19.27,0,*5B
1488474359.2,39712,9.94,72598.0,-9.83,-28.21,-18.59,0,*50
1488474360.43,39713,9.94,72600.3,-9.83,-27.55,-17.87,0,*51
1488474361.68,39714,9.94,72596.8,-9.83,-27.07,-17.17,0,*58
1488474362.93,39715,9.94,72598.0,-9.79,-26.33,-16.59,0,*51
1488474364.18,39716,9.94,72598.0,-9.83,-25.75,-15.95,0,*55
1488474365.43,39717,9.94,72596.8,-9.83,-25.09,-15.35,0,*55
1488474366.69,39718,9.94,72596.3,-9.83,-24.31,-14.93,0,*5D
1488474367.92,39719,9.94,72598.0,-9.81,-23.59,-14.51,0,*59
1488474369.18,39720,9.94,72596.0,-9.83,-22.77,-14.15,0,*5C
1488474370.42,39721,9.94,72596.0,-9.81,-21.97,-13.79,0,*5F
1488474371.62,39722,9.94,72594.8,-9.81,-21.13,-13.51,0,*5A
1488474372.82,39723,9.94,72596.3,-9.81,-20.29,-13.19,0,*5F
1488474374.05,39724,9.94,72592.3,-9.81,-19.57,-13.07,0,*54
1488474375.3,39725,9.94,72590.3,-9.81,-18.89,-13.01,0,*51
1488474376.56,39726,9.94,72590.3,-9.83,-18.31,-12.89,0,*52
1488474377.79,39727,9.94,72588.8,-9.81,-17.73,-12.79,0,*57
1488474379.04,39728,9.94,72590.8,-9.81,-17.41,-12.65,0,*54
1488474380.27,39729,9.94,72588.5,-9.81,-16.83,-12.53,0,*5F
1488474381.5,39730,9.94,72594.0,-9.81,-16.51,-12.47,0,*5D
1488474382.77,39731,9.94,72594.8,-9.77,-16.13,-12.39,0,*5A
1488474384.0,39732,9.94,72596.8,-9.79,-15.85,-12.39,0,*5B
1488474385.2,39733,9.94,72598.8,-9.79,-15.49,-12.25,0,*57
1488474386.44,39734,9.94,72600.0,-9.77,-15.29,-12.25,0,*58
1488474387.67,39735,9.94,72600.8,-9.79,-14.89,-12.11,0,*5B
1488474388.92,39736,9.94,72596.3,-9.79,-14.75,-12.15,0,*5F
1488474390.21,39737,9.94,72600.3,-9.77,-14.47,-12.11,0,*55
1488474391.48,39738,9.94,72600.3,-9.77,-14.15,-12.11,0,*5D
1488474392.74,39739,9.94,72600.0,-9.79,-14.01,-12.15,0,*53
1488474394.01,39740,9.94,72600.3,-9.79,-13.83,-12.11,0,*54
1488474395.23,39741,9.94,72598.8,-9.79,-13.55,-12.15,0,*5A
1488474396.46,39742,9.94,72598.8,-9.79,-13.43,-12.15,0,*5E
1488474397.72,39743,9.94,72602.3,-9.77,-13.29,-12.25,0,*5E
1488474398.93,39744,9.94,72602.3,-9.75,-13.11,-12.21,0,*54
1488474400.13,39745,9.94,72606.5,-9.75,-13.07,-12.25,0,*56
1488474401.34,39746,9.94,72604.8,-9.75,-12.93,-12.25,0,*59
1488474402.55,39747,9.94,72606.3,-9.75,-12.93,-12.39,0,*55
1488474403.83,39748,9.94,72608.5,-9.73,-12.83,-12.53,0,*51
1488474405.08,39749,9.94,72612.5,-9.77,-12.89,-12.65,0,*5B
1488474406.34,39750,9.94,72616.8,-9.75,-12.71,-12.71,0,*53
1488474407.6,39751,9.94,72616.8,-9.73,-12.71,-12.93,0,*58
1488474408.85,39752,9.94,72618.8,-9.73,-12.65,-13.07,0,*52
1488474410.11,39753,9.94,72626.8,-9.73,-12.79,-13.19,0,*51
1488474411.36,39754,9.94,72626.8,-9.73,-12.83,-13.51,0,*5F
1488474412.63,39755,9.94,72624.3,-9.73,-12.71,-13.79,0,*59
1488474413.89,39756,9.94,72626.3,-9.75,-12.79,-13.97,0,*54
1488474415.14,39757,9.94,72624.8,-9.73,-12.93,-14.05,0,*5B
1488474416.37,39758,9.94,72626.3,-9.73,-12.93,-14.29,0,*5A
1488474417.62,39759,9.94,72626.3,-9.73,-13.07,-14.43,0,*5B
1488474418.85,39760,9.94,72624.5,-9.73,-13.19,-14.65,0,*5A
1488474420.12,39761,9.94,72622.8,-9.73,-13.51,-14.83,0,*5F
1488474421.41,39762,9.94,72616.3,-9.73,-13.83,-14.97,0,*56
1488474422.67,39763,9.94,72610.8,-9.73,-14.05,-15.11,0,*51
1488474423.9,39764,9.94,72608.8,-9.73,-14.37,-15.15,0,*53
1488474425.16,39765,9.94,72604.3,-9.73,-14.79,-15.29,0,*57
1488474426.42,39766,9.94,72602.5,-9.73,-14.93,-15.29,0,*50
1488474427.68,39767,9.94,72604.0,-9.73,-15.43,-15.25,0,*51
1488474428.92,39768,9.94,72602.3,-9.73,-15.71,-15.25,0,*5F
1488474430.18,39769,9.94,72602.3,-9.73,-15.85,-15.25,0,*55
1488474431.41,39770,9.94,72596.3,-9.71,-16.09,-15.11,0,*5F
1488474432.66,39771,9.94,72594.3,-9.71,-16.27,-15.01,0,*53
1488474433.91,39772,9.94,72594.8,-9.71,-16.51,-15.01,0,*51
1488474435.17,39773,9.94,72596.0,-9.71,-16.69,-14.93,0,*51
1488474436.37,39774,9.94,72596.0,-9.71,-16.83,-14.89,0,*59
1488474437.61,39775,9.94,72596.0,-9.71,-17.03,-14.89,0,*51
1488474438.86,39776,9.94,72602.8,-9.71,-17.03,-14.79,0,*5D
1488474440.15,39777,9.94,72598.0,-9.73,-17.17,-14.79,0,*5B
1488474441.38,39778,9.94,72596.3,-9.71,-17.25,-14.65,0,*5A
1488474442.6,39779,9.94,72600.5,-9.71,-17.25,-14.61,0,*5F
1488474443.83,39780,9.94,72604.0,-9.71,-17.11,-14.61,0,*5E
1488474445.09,39781,9.94,72612.0,-9.67,-17.17,-14.51,0,*5D
1488474446.28,39782,9.94,72612.0,-9.67,-16.97,-14.33,0,*53
1488474447.54,39783,9.94,72616.8,-9.67,-17.03,-14.47,0,*5D
1488474448.76,39784,9.94,72614.5,-9.67,-17.11,-14.33,0,*5A
1488474449.99,39785,9.94,72614.3,-9.67,-17.11,-14.19,0,*53
1488474451.21,39786,9.94,72610.3,-9.67,-17.11,-14.19,0,*50
1488474452.41,39787,9.94,72610.0,-9.67,-16.97,-14.15,0,*52
1488474453.64,39788,9.94,72610.5,-9.67,-16.97,-14.05,0,*5C
1488474454.86,39789,9.94,72612.3,-9.67,-16.93,-14.01,0,*5D
1488474456.09,39790,9.94,72608.0,-9.67,-16.83,-14.01,0,*54
1488474457.29,39791,9.94,72604.3,-9.67,-16.83,-13.93,0,*59
1488474458.53,39792,9.94,72596.0,-9.67,-16.69,-13.87,0,*5B
1488474459.76,39793,9.94,72594.5,-9.67,-16.55,-13.79,0,*54
1488474461.0,39794,9.94,72594.8,-9.65,-16.51,-13.69,0,*54
1488474462.23,39795,9.94,72594.8,-9.65,-16.37,-13.69,0,*55
1488474463.47,39796,9.94,72594.8,-9.65,-16.17,-13.47,0,*58
1488474464.66,39797,9.94,72588.5,-9.63,-15.99,-13.43,0,*5E
1488474465.94,39798,9.94,72594.0,-9.65,-15.89,-13.29,0,*5A
1488474467.16,39799,9.94,72594.0,-9.65,-15.71,-13.15,0,*53
1488474468.41,39800,9.94,72594.0,-9.63,-15.57,-13.29,0,*51
1488474469.66,39801,9.94,72596.3,-9.65,-15.43,-13.15,0,*5C
1488474470.94,39802,9.94,72594.3,-9.65,-15.43,-13.29,0,*50
1488474472.19,39803,9.94,72596.0,-9.65,-15.29,-13.29,0,*5D
1488474473.39,39804,9.94,72598.3,-9.63,-15.29,-13.43,0,*50
1488474474.61,39805,9.94,72596.5,-9.63,-15.15,-13.33,0,*59
1488474475.81,39806,9.94,72590.0,-9.63,-15.15,-13.43,0,*5D
1488474477.01,39807,9.94,72590.3,-9.63,-15.15,-13.55,0,*5B
1488474478.24,39808,9.94,72590.3,-9.65,-15.15,-13.55,0,*52
1488474479.46,39809,9.94,72594.5,-9.63,-15.01,-13.55,0,*50
1488474480.66,39810,9.94,72590.3,-9.63,-14.89,-13.55,0,*59
1488474481.88,39811,9.94,72592.5,-9.63,-14.83,-13.69,0,*5D
1488474483.1,39812,9.94,72588.8,-9.63,-14.75,-13.73,0,*5C
1488474484.29,39813,9.94,72592.5,-9.63,-14.69,-13.73,0,*50
1488474485.51,39814,9.94,72598.3,-9.63,-14.69,-13.97,0,*5D
1488474486.74,39815,9.94,72596.5,-9.63,-14.61,-14.01,0,*5C
1488474487.96,39816,9.94,72604.3,-9.61,-14.65,-14.11,0,*58
1488474489.24,39817,9.94,72600.8,-9.61,-14.55,-14.43,0,*5D
1488474490.5,39818,9.94,72604.3,-9.59,-14.55,-14.55,0,*5E
1488474491.78,39819,9.94,72606.0,-9.61,-14.55,-14.83,0,*5F
1488474492.99,39820,9.94,72614.0,-9.59,-14.65,-15.11,0,*57
1488474494.25,39821,9.94,72622.0,-9.61,-14.65,-15.39,0,*57
1488474495.47,39822,9.94,72622.5,-9.61,-14.65,-15.67,0,*5F
1488474496.7,39823,9.94,72632.5,-9.61,-14.65,-15.99,0,*5F
1488474497.92,39824,9.94,72634.0,-9.59,-14.79,-16.41,0,*58
1488474499.19,39825,9.94,72634.8,-9.61,-14.83,-16.83,0,*59
1488474500.42,39826,9.94,72628.3,-9.59,-14.93,-17.35,0,*5C
1488474501.66,39827,9.94,72630.3,-9.59,-15.01,-17.79,0,*5F
1488474502.91,39828,9.94,72626.0,-9.61,-15.11,-18.35,0,*5D
1488474504.11,39829,9.94,72626.5,-9.59,-15.25,-19.03,0,*54
1488474505.35,39830,9.94,72624.0,-9.59,-15.53,-19.57,0,*5C